Time,TemperatureF,DewpointF,PressureIn,WindDirection,WindDirectionDegrees,WindSpeedMPH,WindSpeedGustMPH,Humidity,HourlyPrecipIn,Conditions,Clouds,dailyrainin,SoftwareType,DateUTC
2013-05-11 00:03:00,80.0,75.0,30.06,SSE,152,0.0,14.0,85,0.00,,,0.00,,2013-05-11 04:03:00,
2013-05-11 00:12:00,80.0,75.0,30.06,SSE,152,0.0,14.0,85,0.00,,,0.00,,2013-05-11 04:12:00,
2013-05-11 00:23:00,80.0,75.0,30.06,SSE,155,0.0,3.0,85,0.00,,,0.00,,2013-05-11 04:23:00,
2013-05-11 00:33:00,80.0,75.0,30.06,SSE,153,0.0,0.0,85,0.00,,,0.00,,2013-05-11 04:33:00,
2013-05-11 00:43:00,79.0,74.0,30.05,SSE,163,0.0,0.0,85,0.00,,,0.00,,2013-05-11 04:43:00,
2013-05-11 00:52:00,79.0,74.0,30.05,SSE,163,0.0,0.0,85,0.00,,,0.00,,2013-05-11 04:52:00,
2013-05-11 01:02:00,80.0,75.0,30.05,SSE,156,15.0,17.0,86,0.00,,,0.00,,2013-05-11 05:02:00,
2013-05-11 01:12:00,80.0,75.0,30.05,SSE,156,15.0,17.0,86,0.00,,,0.00,,2013-05-11 05:12:00,
2013-05-11 01:22:00,79.0,74.0,30.04,South,173,13.0,16.0,86,0.00,,,0.00,,2013-05-11 05:22:00,
2013-05-11 01:32:00,79.0,74.0,30.04,South,173,13.0,17.0,86,0.00,,,0.00,,2013-05-11 05:32:00,
2013-05-11 01:42:00,79.0,74.0,30.04,SSE,167,13.0,15.0,86,0.00,,,0.00,,2013-05-11 05:42:00,
2013-05-11 01:52:00,79.0,74.0,30.04,SSE,167,13.0,15.0,86,0.00,,,0.00,,2013-05-11 05:52:00,
2013-05-11 02:02:00,79.0,74.0,30.04,SSE,163,13.0,15.0,85,0.00,,,0.00,,2013-05-11 06:02:00,
2013-05-11 02:12:00,79.0,74.0,30.04,SSE,163,13.0,15.0,85,0.00,,,0.00,,2013-05-11 06:12:00,
2013-05-11 02:21:00,79.0,74.0,30.03,South,174,13.0,15.0,85,0.00,,,0.00,,2013-05-11 06:21:00,
2013-05-11 02:32:00,79.0,74.0,30.31,South,172,14.0,16.0,85,0.00,,,0.00,,2013-05-11 06:32:00,
2013-05-11 02:42:00,79.0,74.0,30.03,South,177,11.0,14.0,85,0.00,,,0.00,,2013-05-11 06:42:00,
2013-05-11 02:52:00,79.0,74.0,30.03,South,177,11.0,14.0,85,0.00,,,0.00,,2013-05-11 06:52:00,
2013-05-11 03:02:00,79.0,74.0,30.03,South,169,12.0,14.0,85,0.00,,,0.00,,2013-05-11 07:02:00,
2013-05-11 03:12:00,79.0,74.0,30.03,South,169,12.0,14.0,85,0.00,,,0.00,,2013-05-11 07:12:00,
2013-05-11 03:21:00,79.0,74.0,30.03,South,174,10.0,13.0,85,0.00,,,0.00,,2013-05-11 07:21:00,
2013-05-11 03:32:00,79.0,74.0,32.25,South,182,11.0,13.0,85,0.00,,,0.00,,2013-05-11 07:32:00,
2013-05-11 03:42:00,79.0,74.0,32.25,South,182,11.0,13.0,85,0.00,,,0.00,,2013-05-11 07:42:00,
2013-05-11 03:52:00,79.0,74.0,26.42,South,187,10.0,13.0,86,0.00,,,0.00,,2013-05-11 07:52:00,
2013-05-11 04:02:00,79.0,74.0,30.03,South,175,11.0,13.0,86,0.00,,,0.00,,2013-05-11 08:02:00,
2013-05-11 04:12:00,79.0,74.0,30.03,South,175,11.0,13.0,86,0.00,,,0.00,,2013-05-11 08:12:00,
2013-05-11 04:21:00,79.0,75.0,30.03,South,188,10.0,12.0,87,0.00,,,0.00,,2013-05-11 08:21:00,
2013-05-11 04:32:00,79.0,74.0,26.78,South,183,12.0,14.0,86,0.00,,,0.00,,2013-05-11 08:32:00,
2013-05-11 04:42:00,79.0,74.0,27.13,South,175,12.0,15.0,86,0.00,,,0.00,,2013-05-11 08:42:00,
2013-05-11 04:52:00,79.0,74.0,27.13,South,175,12.0,15.0,86,0.00,,,0.00,,2013-05-11 08:52:00,
2013-05-11 05:01:00,79.0,74.0,26.78,South,169,13.0,15.0,86,0.00,,,0.00,,2013-05-11 09:01:00,
2013-05-11 05:11:00,79.0,74.0,26.78,South,169,13.0,15.0,86,0.00,,,0.00,,2013-05-11 09:11:00,
2013-05-11 05:21:00,79.0,74.0,26.40,South,175,12.0,14.0,86,0.00,,,0.00,,2013-05-11 09:21:00,
2013-05-11 05:32:00,79.0,74.0,26.40,SSE,168,13.0,15.0,86,0.00,,,0.00,,2013-05-11 09:32:00,
2013-05-11 05:42:00,79.0,74.0,30.02,SSE,163,12.0,15.0,86,0.00,,,0.00,,2013-05-11 09:42:00,
2013-05-11 05:53:00,79.0,74.0,30.02,SSE,163,12.0,15.0,86,0.00,,,0.00,,2013-05-11 09:53:00,
2013-05-11 06:03:00,79.0,74.0,30.02,South,169,12.0,15.0,86,0.00,,,0.00,,2013-05-11 10:03:00,
2013-05-11 06:12:00,79.0,74.0,30.02,South,169,12.0,15.0,86,0.00,,,0.00,,2013-05-11 10:12:00,
2013-05-11 06:22:00,79.0,74.0,25.03,South,173,12.0,16.0,86,0.00,,,0.00,,2013-05-11 10:22:00,
2013-05-11 06:33:00,79.0,74.0,30.02,SSE,168,12.0,14.0,86,0.00,,,0.00,,2013-05-11 10:33:00,
2013-05-11 06:42:00,79.0,74.0,30.02,South,171,13.0,14.0,85,0.00,,,0.00,,2013-05-11 10:42:00,
2013-05-11 06:53:00,79.0,74.0,30.02,South,171,13.0,14.0,85,0.00,,,0.00,,2013-05-11 10:53:00,
2013-05-11 07:02:00,79.0,74.0,30.02,South,186,12.0,14.0,85,0.00,,,0.00,,2013-05-11 11:02:00,
2013-05-11 07:12:00,79.0,74.0,30.02,South,186,12.0,14.0,85,0.00,,,0.00,,2013-05-11 11:12:00,
2013-05-11 07:22:00,79.0,74.0,30.03,SSE,166,15.0,16.0,85,0.00,,,0.00,,2013-05-11 11:22:00,
2013-05-11 07:32:00,79.0,74.0,30.03,South,175,14.0,16.0,85,0.00,,,0.00,,2013-05-11 11:32:00,
2013-05-11 07:42:00,79.0,73.0,25.13,SSE,167,15.0,18.0,83,0.00,,,0.00,,2013-05-11 11:42:00,
2013-05-11 07:52:00,79.0,73.0,25.13,SSE,167,15.0,18.0,83,0.00,,,0.00,,2013-05-11 11:52:00,
2013-05-11 08:01:00,79.0,73.0,25.13,South,173,15.0,16.0,83,0.00,,,0.00,,2013-05-11 12:01:00,
2013-05-11 08:11:00,79.0,73.0,25.13,South,173,15.0,16.0,83,0.00,,,0.00,,2013-05-11 12:11:00,
2013-05-11 08:22:00,80.0,74.0,25.13,SSE,162,15.0,18.0,82,0.00,,,0.00,,2013-05-11 12:22:00,
2013-05-11 08:32:00,80.0,74.0,25.13,South,171,16.0,18.0,81,0.00,,,0.00,,2013-05-11 12:32:00,
2013-05-11 08:42:00,82.0,74.0,23.08,SSE,167,17.0,19.0,78,0.00,,,0.00,,2013-05-11 12:42:00,
2013-05-11 08:52:00,82.0,74.0,23.08,SSE,167,17.0,19.0,78,0.00,,,0.00,,2013-05-11 12:52:00,
2013-05-11 09:02:00,82.0,74.0,23.08,South,171,16.0,19.0,76,0.00,,,0.00,,2013-05-11 13:02:00,
2013-05-11 09:11:00,82.0,74.0,23.08,South,171,16.0,19.0,76,0.00,,,0.00,,2013-05-11 13:11:00,
2013-05-11 09:21:00,83.0,74.0,26.41,South,177,16.0,18.0,74,0.00,,,0.00,,2013-05-11 13:21:00,
2013-05-11 09:32:00,83.0,74.0,26.41,South,180,15.0,18.0,74,0.00,,,0.00,,2013-05-11 13:32:00,
2013-05-11 09:42:00,83.0,74.0,26.41,South,180,12.0,17.0,75,0.00,,,0.00,,2013-05-11 13:42:00,
2013-05-11 09:52:00,83.0,74.0,26.41,South,180,12.0,17.0,75,0.00,,,0.00,,2013-05-11 13:52:00,
2013-05-11 10:02:00,83.0,74.0,27.55,South,171,15.0,17.0,75,0.00,,,0.00,,2013-05-11 14:02:00,
2013-05-11 10:11:00,83.0,74.0,27.55,South,171,15.0,17.0,75,0.00,,,0.00,,2013-05-11 14:11:00,
2013-05-11 10:21:00,84.0,75.0,27.55,SSE,166,13.0,17.0,74,0.00,,,0.00,,2013-05-11 14:21:00,
2013-05-11 10:32:00,84.0,74.0,27.55,South,171,15.0,17.0,73,0.00,,,0.00,,2013-05-11 14:32:00,
2013-05-11 10:42:00,84.0,74.0,27.55,South,177,15.0,17.0,73,0.00,,,0.00,,2013-05-11 14:42:00,
2013-05-11 10:52:00,84.0,74.0,27.55,South,177,15.0,17.0,73,0.00,,,0.00,,2013-05-11 14:52:00,
2013-05-11 11:01:00,84.0,74.0,27.55,South,181,14.0,16.0,73,0.00,,,0.00,,2013-05-11 15:01:00,
2013-05-11 11:11:00,85.0,75.0,27.55,South,176,14.0,16.0,72,0.00,,,0.00,,2013-05-11 15:11:00,
2013-05-11 11:21:00,85.0,75.0,27.55,South,176,14.0,16.0,72,0.00,,,0.00,,2013-05-11 15:21:00,
2013-05-11 11:32:00,86.0,75.0,27.55,SSW,192,12.0,16.0,71,0.00,,,0.00,,2013-05-11 15:32:00,
2013-05-11 11:43:00,86.0,75.0,30.06,South,187,12.0,14.0,70,0.00,,,0.00,,2013-05-11 15:43:00,
2013-05-11 11:53:00,86.0,75.0,30.06,South,187,12.0,14.0,70,0.00,,,0.00,,2013-05-11 15:53:00,
2013-05-11 12:03:00,86.0,75.0,30.06,South,182,12.0,15.0,70,0.00,,,0.00,,2013-05-11 16:03:00,
2013-05-11 12:12:00,86.0,75.0,30.06,South,182,12.0,15.0,70,0.00,,,0.00,,2013-05-11 16:12:00,
2013-05-11 12:23:00,86.0,75.0,30.06,South,175,15.0,17.0,71,0.00,,,0.00,,2013-05-11 16:23:00,
2013-05-11 12:33:00,86.0,75.0,30.05,South,182,11.0,19.0,70,0.00,,,0.00,,2013-05-11 16:33:00,
2013-05-11 12:42:00,87.0,76.0,30.05,South,191,6.0,15.0,70,0.00,,,0.00,,2013-05-11 16:42:00,
2013-05-11 12:53:00,87.0,76.0,30.05,South,191,6.0,15.0,70,0.00,,,0.00,,2013-05-11 16:53:00,
2013-05-11 13:02:00,87.0,76.0,30.05,South,183,13.0,15.0,69,0.00,,,0.00,,2013-05-11 17:02:00,
2013-05-11 13:12:00,87.0,76.0,30.05,South,183,13.0,15.0,69,0.00,,,0.00,,2013-05-11 17:12:00,
2013-05-11 13:22:00,87.0,75.0,30.05,SSW,196,10.0,15.0,67,0.00,,,0.00,,2013-05-11 17:22:00,
2013-05-11 13:32:00,87.0,76.0,30.04,SSW,193,13.0,16.0,69,0.00,,,0.00,,2013-05-11 17:32:00,
2013-05-11 13:42:00,88.0,76.0,30.04,South,173,14.0,16.0,67,0.00,,,0.00,,2013-05-11 17:42:00,
2013-05-11 13:52:00,88.0,76.0,30.04,South,173,14.0,16.0,67,0.00,,,0.00,,2013-05-11 17:52:00,
2013-05-11 14:01:00,88.0,75.0,30.04,South,169,12.0,16.0,66,0.00,,,0.00,,2013-05-11 18:01:00,
2013-05-11 14:12:00,88.0,75.0,30.04,South,169,12.0,16.0,66,0.00,,,0.00,,2013-05-11 18:12:00,
2013-05-11 14:21:00,87.0,74.0,30.04,South,179,14.0,17.0,65,0.00,,,0.00,,2013-05-11 18:21:00,
2013-05-11 14:32:00,87.0,75.0,30.03,South,174,15.0,17.0,67,0.00,,,0.00,,2013-05-11 18:32:00,
2013-05-11 14:42:00,88.0,75.0,30.03,South,177,14.0,17.0,65,0.00,,,0.00,,2013-05-11 18:42:00,
2013-05-11 14:52:00,88.0,75.0,30.03,South,177,14.0,17.0,65,0.00,,,0.00,,2013-05-11 18:52:00,
2013-05-11 15:02:00,88.0,75.0,30.03,South,169,15.0,17.0,65,0.00,,,0.00,,2013-05-11 19:02:00,
2013-05-11 15:11:00,88.0,75.0,30.03,South,169,15.0,17.0,65,0.00,,,0.00,,2013-05-11 19:11:00,
2013-05-11 15:21:00,88.0,75.0,30.02,SSW,192,12.0,17.0,65,0.00,,,0.00,,2013-05-11 19:21:00,
2013-05-11 15:32:00,88.0,74.0,30.01,South,186,13.0,16.0,64,0.00,,,0.00,,2013-05-11 19:32:00,
2013-05-11 15:42:00,88.0,75.0,30.01,SSW,195,9.0,16.0,65,0.00,,,0.00,,2013-05-11 19:42:00,
2013-05-11 15:53:00,88.0,75.0,30.01,SSW,195,9.0,16.0,65,0.00,,,0.00,,2013-05-11 19:53:00,
2013-05-11 16:02:00,88.0,74.0,30.02,South,175,9.0,12.0,64,0.00,,,0.00,,2013-05-11 20:02:00,
2013-05-11 16:12:00,88.0,74.0,30.02,South,175,9.0,12.0,64,0.00,,,0.00,,2013-05-11 20:12:00,
2013-05-11 16:22:00,89.0,75.0,30.01,SSW,202,5.0,12.0,63,0.00,,,0.00,,2013-05-11 20:22:00,
2013-05-11 16:32:00,88.0,74.0,30.01,SSW,204,6.0,13.0,64,0.00,,,0.00,,2013-05-11 20:32:00,
2013-05-11 16:42:00,88.0,74.0,30.01,South,190,10.0,12.0,64,0.00,,,0.00,,2013-05-11 20:42:00,
2013-05-11 16:52:00,88.0,74.0,30.01,South,190,10.0,12.0,64,0.00,,,0.00,,2013-05-11 20:52:00,
2013-05-11 17:02:00,88.0,74.0,30.01,SSW,193,7.0,11.0,64,0.00,,,0.00,,2013-05-11 21:02:00,
2013-05-11 17:11:00,88.0,74.0,30.01,SSW,193,7.0,11.0,64,0.00,,,0.00,,2013-05-11 21:11:00,
2013-05-11 17:22:00,87.0,74.0,30.01,South,186,6.0,11.0,65,0.00,,,0.00,,2013-05-11 21:22:00,
2013-05-11 17:33:00,88.0,75.0,30.00,SSW,196,0.0,10.0,65,0.00,,,0.00,,2013-05-11 21:33:00,
2013-05-11 17:43:00,88.0,75.0,30.00,SSW,196,0.0,10.0,65,0.00,,,0.00,,2013-05-11 21:43:00,
2013-05-11 17:53:00,87.0,74.0,30.01,SSW,208,5.0,10.0,65,0.00,,,0.00,,2013-05-11 21:53:00,
2013-05-11 18:02:00,87.0,74.0,30.00,SSW,199,3.0,12.0,65,0.00,,,0.00,,2013-05-11 22:02:00,
2013-05-11 18:13:00,87.0,74.0,30.00,SSW,199,3.0,12.0,65,0.00,,,0.00,,2013-05-11 22:13:00,
2013-05-11 18:23:00,86.0,75.0,27.37,SW,216,6.0,14.0,69,0.00,,,0.00,,2013-05-11 22:23:00,
2013-05-11 18:33:00,86.0,74.0,30.00,SSW,192,7.0,14.0,68,0.00,,,0.00,,2013-05-11 22:33:00,
2013-05-11 18:42:00,86.0,74.0,30.00,SSW,192,7.0,14.0,68,0.00,,,0.00,,2013-05-11 22:42:00,
2013-05-11 18:52:00,85.0,74.0,29.99,SSW,209,5.0,16.0,70,0.00,,,0.00,,2013-05-11 22:52:00,
2013-05-11 19:02:00,85.0,74.0,29.99,SSW,201,5.0,11.0,70,0.00,,,0.00,,2013-05-11 23:02:00,
2013-05-11 19:12:00,85.0,74.0,29.99,SSW,201,5.0,11.0,70,0.00,,,0.00,,2013-05-11 23:12:00,
2013-05-11 19:22:00,84.0,74.0,30.00,SW,216,2.0,9.0,71,0.00,,,0.00,,2013-05-11 23:22:00,
2013-05-11 19:32:00,84.0,74.0,30.00,SSW,212,3.0,7.0,72,0.00,,,0.00,,2013-05-11 23:32:00,
2013-05-11 19:42:00,82.0,73.0,30.01,SW,222,2.0,7.0,74,0.00,,,0.00,,2013-05-11 23:42:00,
2013-05-11 19:52:00,82.0,73.0,30.01,SW,222,2.0,7.0,74,0.00,,,0.00,,2013-05-11 23:52:00,
2013-05-11 20:01:00,82.0,73.0,30.01,SW,223,1.0,7.0,74,0.00,,,0.00,,2013-05-12 00:01:00,
2013-05-11 20:12:00,82.0,73.0,30.01,SW,223,1.0,7.0,74,0.00,,,0.00,,2013-05-12 00:12:00,
2013-05-11 20:21:00,81.0,72.0,30.03,SW,223,0.0,0.0,75,0.00,,,0.00,,2013-05-12 00:21:00,
2013-05-11 20:32:00,81.0,72.0,30.02,SW,223,0.0,0.0,75,0.00,,,0.00,,2013-05-12 00:32:00,
2013-05-11 20:42:00,81.0,73.0,28.64,SW,223,0.0,0.0,76,0.00,,,0.00,,2013-05-12 00:42:00,
2013-05-11 20:52:00,81.0,73.0,28.64,SW,223,0.0,0.0,76,0.00,,,0.00,,2013-05-12 00:52:00,
2013-05-11 21:01:00,81.0,73.0,30.03,SW,223,0.0,0.0,77,0.00,,,0.00,,2013-05-12 01:01:00,
2013-05-11 21:11:00,81.0,73.0,30.03,SW,223,0.0,0.0,77,0.00,,,0.00,,2013-05-12 01:11:00,
2013-05-11 21:21:00,81.0,74.0,30.03,South,180,5.0,6.0,79,0.00,,,0.00,,2013-05-12 01:21:00,
2013-05-11 21:32:00,80.0,72.0,30.04,South,175,2.0,6.0,78,0.00,,,0.00,,2013-05-12 01:32:00,
2013-05-11 21:42:00,80.0,72.0,30.04,SSE,150,4.0,6.0,78,0.00,,,0.00,,2013-05-12 01:42:00,
2013-05-11 21:52:00,80.0,72.0,30.04,SSE,150,4.0,6.0,78,0.00,,,0.00,,2013-05-12 01:52:00,
2013-05-11 22:01:00,80.0,72.0,30.04,SSE,154,3.0,7.0,78,0.00,,,0.00,,2013-05-12 02:01:00,
2013-05-11 22:11:00,80.0,72.0,30.04,SSE,154,3.0,7.0,78,0.00,,,0.00,,2013-05-12 02:11:00,
2013-05-11 22:22:00,80.0,73.0,30.04,SSE,156,5.0,8.0,79,0.00,,,0.00,,2013-05-12 02:22:00,
2013-05-11 22:32:00,80.0,73.0,30.07,SSE,156,4.0,6.0,79,0.00,,,0.00,,2013-05-12 02:32:00,
2013-05-11 22:42:00,80.0,73.0,30.04,SSE,156,8.0,11.0,80,0.00,,,0.00,,2013-05-12 02:42:00,
2013-05-11 22:52:00,80.0,73.0,30.04,SSE,156,8.0,11.0,80,0.00,,,0.00,,2013-05-12 02:52:00,
2013-05-11 23:01:00,80.0,74.0,30.05,SSE,157,11.0,12.0,81,0.00,,,0.00,,2013-05-12 03:01:00,
2013-05-11 23:11:00,80.0,74.0,30.05,SSE,156,10.0,13.0,82,0.00,,,0.00,,2013-05-12 03:11:00,
2013-05-11 23:22:00,80.0,74.0,30.05,SSE,156,10.0,13.0,82,0.00,,,0.00,,2013-05-12 03:22:00,
2013-05-11 23:33:00,80.0,74.0,30.05,SE,134,10.0,12.0,82,0.00,,,0.00,,2013-05-12 03:33:00,
2013-05-11 23:43:00,80.0,74.0,30.05,SE,134,10.0,12.0,82,0.00,,,0.00,,2013-05-12 03:43:00,
2013-05-11 23:53:00,79.0,73.0,30.05,SE,138,11.0,14.0,83,0.00,,,0.00,,2013-05-12 03:53:00,